Weather History for Raton, NM

Change the Weather History Date:

Tuesday, August 6, 2013

  Actual Average (KTAD) Record (KTAD)
Temperature  
Mean Temperature 68 °F 72 °F  
Max Temperature 84 °F 87 °F 98 °F (1977)
Min Temperature 55 °F 58 °F 52 °F (1974)
Degree Days  
Heating Degree Days 0 0  
Month to date heating degree days 0  
Since 1 June heating degree days 42  
Since 1 July heating degree days 3  
Cooling Degree Days 4 8  
Month to date cooling degree days 48  
Year to date cooling degree days 483  
Since 1 June cooling degree days 455  
Growing Degree Days 18 (Base 50)    
Moisture  
Dew Point 51 °F    
Average Humidity 54    
Maximum Humidity 90    
Minimum Humidity 28    
Precipitation  
Precipitation 0.00 in 0.08 in 1.01 in (1955)
Month to date precipitation 0.50  
Year to date precipitation 8.73  
Sea Level Pressure  
Sea Level Pressure 29.89 in    
Wind  
Wind Speed 7 mph (NE)    
Max Wind Speed 16 mph    
Max Gust Speed 24 mph    
Visibility 10 miles    
Events Rain    
T = Trace of Precipitation, MM = Missing Value Source: NWS Daily Summary

Daily Weather History Graph

Daily Weather History Graph

Search for Another Location

Airport:

Trip Planner

Search our weather history database for the weather conditions in past years. The results will help you decide how hot, cold, wet, or windy it might be!

Date:

Astronomy

Aug. 06, 2013 Rise Set
Actual Time 6:08 AM MDT 7:59 PM MDT
Civil Twilight 5:39 AM MDT 8:27 PM MDT
Nautical Twilight 5:05 AM MDT 9:01 PM MDT
Astronomical Twilight 4:29 AM MDT 9:37 PM MDT
Moon 6:00 AM MDT (8/6) 7:37 PM MDT (8/6)
Length of Visible Light 14h 47m
Length of Day
13h 50m
Waning Crescent, 0% of the Moon is Illuminated
Aug 6
Waning Crescent
Aug 6
New
Aug 14
First Quarter
Aug 20
Full
Aug 28
Last Quarter

Hourly Weather History & Observations

Time (MDT) Temp. Dew Point Humidity Pressure Visibility Wind Dir Wind Speed Gust Speed Precip Events Conditions
12:53 AM 64.9 °F 51.1 °F 61% 29.88 in 10.0 mi ENE 5.8 mph - N/A   Clear
1:53 AM 62.1 °F 53.1 °F 72% 29.87 in 10.0 mi NNE 4.6 mph - N/A   Clear
2:53 AM 63.0 °F 51.1 °F 65% 29.86 in 10.0 mi NE 8.1 mph - N/A   Clear
3:53 AM 62.1 °F 51.1 °F 67% 29.86 in 10.0 mi Calm Calm - N/A   Clear
4:53 AM 59.0 °F 53.1 °F 81% 29.90 in 10.0 mi Calm Calm - N/A   Clear
5:53 AM 55.9 °F 53.1 °F 90% 29.91 in 10.0 mi NNW 5.8 mph - N/A   Clear
6:53 AM 59.0 °F 53.1 °F 81% 29.92 in 10.0 mi Calm Calm - N/A   Clear
7:53 AM 62.1 °F 54.0 °F 75% 29.91 in 10.0 mi ENE 3.5 mph - N/A   Clear
8:53 AM 69.1 °F 53.1 °F 57% 29.90 in 10.0 mi ENE 4.6 mph - N/A   Clear
9:53 AM 72.0 °F 52.0 °F 49% 29.90 in 10.0 mi SSW 4.6 mph - N/A   Clear
10:53 AM 78.1 °F 54.0 °F 43% 29.87 in 10.0 mi South 8.1 mph - N/A   Clear
11:53 AM 82.9 °F 50.0 °F 32% 29.85 in 10.0 mi South 11.5 mph - N/A   Clear
12:53 PM 81.0 °F 51.1 °F 35% 29.85 in 10.0 mi South 13.8 mph - N/A   Clear
1:53 PM 80.1 °F 44.1 °F 28% 29.89 in 10.0 mi SSE 11.5 mph 17.3 mph N/A   Scattered Clouds
2:11 PM 78.8 °F 46.4 °F 32% 30.16 in 10.0 mi NE 15.0 mph 24.2 mph N/A   Mostly Cloudy
2:53 PM 79.0 °F 48.0 °F 34% 29.86 in 10.0 mi ENE 10.4 mph - N/A   Scattered Clouds
3:53 PM 80.1 °F 46.0 °F 30% 29.85 in 10.0 mi NNE 8.1 mph - N/A   Clear
4:53 PM 78.1 °F 51.1 °F 39% 29.86 in 10.0 mi NNW 16.1 mph - N/A   Partly Cloudy
5:53 PM 75.0 °F 48.9 °F 40% 29.88 in 10.0 mi NNW 13.8 mph - 0.00 in Rain Light Rain
6:53 PM 75.9 °F 51.1 °F 42% 29.85 in 10.0 mi NNW 11.5 mph - 0.00 in   Clear
7:53 PM 72.0 °F 53.1 °F 51% 29.87 in 10.0 mi Calm Calm - N/A   Clear
8:53 PM 69.1 °F 53.1 °F 57% 29.88 in 10.0 mi North 9.2 mph - N/A   Overcast
9:53 PM 70.0 °F 54.0 °F 57% 29.90 in 10.0 mi NW 12.7 mph - 0.00 in   Overcast
10:53 PM 68.0 °F 53.1 °F 59% 29.91 in 10.0 mi ENE 5.8 mph - N/A   Overcast
11:53 PM 64.9 °F 54.0 °F 68% 29.88 in 10.0 mi NNE 16.1 mph - N/A   Mostly Cloudy